FENGYUN 1C DEB, 31381

Orbit data source: Space-Track

FENGYUN 1C DEB, 31381 is space debris in SSO originally from a launch on Mon, 10 May 1999 UTC launched from the Taiyaun Space Center, China (TSC). Fengyun 1C debris stems from the Chinese weather satellite Fengyun-1C, which was intentionally destroyed by a Chinese anti-satellite missile in 2007. This event dramatically increased the amount of space debris, with thousands of trackable fragments posing hazards to satellites and human spaceflight. The Fengyun 1C debris cloud has become a focal point in discussions about space sustainability and the need for international regulations to prevent the creation of new debris.

Loading next visibility...
Identifier
31381, 1999-025BSM
Orbit
SSO
Country
Flag of CNCN / PRC
Related business
Manufacturer
Unknown
Mission
Spacecraft
Bus & Motor
Unknown
Mass
Unknown
Launch date (UTC)
1999-05-10 (27 years ago)
Launch vehicle
Unknown
Launch site
Taiyaun Space Center, China (TSC)
Object type
Payload
Rocket body
Debris
Shape & HBR
Unknown shape, 0.1 m
Radar Cross Section
Small (<0.1 m²)

Expand to show TLE details & history
Last TLE update: 2 weeks ago

TLE from 2 weeks ago
0 FENGYUN 1C DEB
1 31381U 99025BSM 26146.01685011  .00001199  00000-0  33429-3 0  9996
2 31381  98.4793 232.3390 0195036 261.1691  96.7368 14.37693823997606
Epoch: 2026-05-26T00:24Z
TLE epoch observation values (Epoch: 2026-05-26T00:24:15.849Z)
Latitude
-0.00006°
Longitude
-17.32336°
Altitude
788.095 km
Speed
7.45 km/s
True Right ascension
15h 29m 21s
True Declination
0° 00' 00"
Sunlit
Object was in full shadow at epoch
Visualization orbit readout
Latitude
Unknown
Longitude
Unknown
Altitude
Unknown
Speed
Unknown
Apparent Right ascension
Unknown
Apparent Declination
Unknown
Sunlit
N/A
Visualization observer readout
Local Sidereal Time
01:35:31
Azimuth
Unknown
Elevation
Unknown
Doppler factor
Unknown
Orbital elements
Apogee altitude
902.533 km
Perigee altitude
623.968 km
Semi-major axis
7,141.388 km
Eccentricity
0.0195
Inclination
98.4793°
RAAN
232.339°
Arg. of periapsis
261.1691°
True anomaly
98.94944°
Mean anomaly
96.7368°
Eccentric anomaly
97.84382°
Mean motion
3.59641 °/min
Orbital period
100.1 mins
BSTAR
0.00033429
Loading maneuver chart data...
Computing Atmospheric mass density...
Loading historical data...
Loading historical data...
Loading historical data...
Loading historical data...
Loading historical data...
Loading historical data...
Loading historical data...

Documentation

Showing up to 5 results
|